Hourly Data Report for September 17, 2004

SHERBROOKE A
QUEBEC

45°26'00.000" N
71°41'00.000" W
241.40 m
7028124
71610
YSC

Download Data

Hourly Data (September 2004)
Hourly Data Report for September 17, 2004
TIME
LST
Temp Definition
°C
Dew Point Definition
°C
Rel Hum Definition
%
Precip. Amount Definition
mm

Wind Dir Definition
10's deg

Wind Spd Definition
km/h
Visibility Definition
km
Stn Press Definition
kPa
Hmdx Definition


Wind Chill Definition


Weather Definition


00:00 17.4 15.6 89   13 4 15.0 98.30      
01:00 16.9 15.9 94     0 9.7 98.28     Rain
02:00 17.4 16.3 93   25 6 12.9 98.28     Drizzle
03:00 17.4 16.4 94   23 4 8.0 98.30      
04:00 17.5 16.5 94   23 7 8.0 98.33      
05:00 17.5 16.2 92   22 7 12.9 98.34      
06:00 16.9 15.5 91   22 9 11.3 98.43      
07:00 16.9 14.9 88   25 13 19.3 98.45     Mostly Cloudy
08:00 16.4 13.2 81   27 13 24.1 98.51     Mostly Cloudy
09:00 17.7 13.7 77   24 13 24.1 98.53     Mostly Cloudy
10:00 17.4 13.0 75   26 17 24.1 98.50     Mostly Cloudy
11:00 17.8 11.9 68   24 19 24.1 98.51     Mostly Cloudy
12:00 18.9 11.8 63   24 11 24.1 98.50     Mostly Cloudy
13:00 18.4 9.4 56   25 15 24.1 98.50     Mostly Cloudy
14:00 18.4 10.7 61   29 19 24.1 98.49     Mostly Cloudy
15:00 17.7 9.7 59   28 17 24.1 98.48     Mostly Cloudy
16:00 16.6 9.1 61   27 15 24.1 98.51     Cloudy
17:00 15.2 9.7 70   27 7 15.0 98.52      
18:00 13.5 10.2 80   29 7 15.0 98.51      
19:00 13.3 9.3 77   27 9 15.0 98.58      
20:00 11.5 9.5 88   27 4 15.0 98.61      
21:00 12.1 9.4 84   25 6 15.0 98.65      
22:00 11.4 9.6 89   28 4 15.0 98.65      
23:00 11.5 9.6 88   23 4 15.0 98.72      

Notes on Data Quality.

Legend

  • E = Estimated
  • M = Missing
  • NA = Not Available*
  • [empty] = Indicates an unobserved value
Date modified: